User: anonymous   Login
Location: ?????
(54.9266°N, 38.5527°E)
Time: 17:13:23
(UTC+00:00)
Language:

Cosmos 2112 Rocket - Orbit

View from above orbital plane
View from above orbital plane
View from above satellite
View from above satellite

Ground track
Ground track

The orbit data is extracted from the following two-line orbital elements,

1 21015U 90111B   24176.86104627  .00000305  00000-0  11242-3 0  9996
2 21015  74.0502 112.2640 0020410 103.5195 256.8234 14.36584301854042
Epoch (UTC): 24 June 2024 20:39:54
Eccentricity: 0.0020410
inclination: 74.0502°
perigee height: 755 km
apogee height: 784 km
right ascension of ascending node: 112.2640°
argument of perigee: 103.5195°
revolutions per day: 14.36584301
mean anomaly at epoch: 256.8234°
orbit number at epoch: 85404

The dashed part of the orbit path shows where the satellite is in the earth's shadow,  

DLR